Location: Evergreen Manor
(41.4083°N, 81.4939°W)
Time: 06:32:33
(UTC+00:00)

Cosmos 1092 Rocket - Pass Details

Date: 11 December 2019
Orbit: 954 x 995 km, 83.0° (Epoch: 27 January)

Event Time Altitude Azimuth Distance (km) Brightness Sun altitude
Exits shadow 10:48:35 - 346° (NNW) 3,002 6.3 -20.5°
Reaches altitude 10° 10:49:23 10° 345° (NNW) 2,701 6.0 -20.3°
Maximum altitude 10:55:24 58° 268° (W) 1,111 3.9 -19.2°
Drops below altitude 10° 11:01:22 10° 191° (S) 2,673 6.3 -18.2°
Sets 11:03:52 0° 187° (S) 3,614 7.1 -17.7°
